User: anonymous   Login
Location: Utrecht
(52.0830°N, 5.1330°E)
Time: 07:42:04
(UTC+01:00)
Language:

Cosmos 1092 Rocket - Orbit

View from above orbital plane
View from above orbital plane
View from above satellite
View from above satellite

Ground track
Ground track

The orbit data is extracted from the following two-line orbital elements,

1 11327U 79030B   14304.10430852  .00000088  00000-0  73691-4 0  8735
2 11327 082.9473 288.7169 0027105 350.3768 077.3985 13.76947502787013
Epoch (UTC): 31 October 2014 02:30:12
Eccentricity: 0.0027105
inclination: 82.9473°
perigee height: 955 km
apogee height: 994 km
right ascension of ascending node: 288.7169°
argument of perigee: 350.3768°
revolutions per day: 13.76947502
mean anomaly at epoch: 77.3985°
orbit number at epoch: 78701

The dashed part of the orbit path shows where the satellite is in the earth's shadow,  

DLR